When you browse on this site, cookies collect data to enhance your experience and personalize the content and advertising you see.
Visit our Privacy Policy to learn more. By continuing to use the site, you agree to this use of cookies and data.
  • In France
  • List of Countries
  • For 7 days
  • Water Temperature
  • Satellite Maps
  • Weather Map
  • Weather Widgets
  • user-avatar
    Login

    Hourly Weather Gamboma

    Today, 18 November, Sunday

    Time Temperature Precipitation Wind Pressure Humidity
    00:00 +26°C° 0.4 mm 1 mps 728 mmHg 82%
    01:00 +26°C° 0.4 mm 1 mps 728 mmHg 85%
    02:00 +25°C° 1.2 mm 1 mps 728 mmHg 87%
    03:00 +25°C° 1.2 mm 1 mps 728 mmHg 90%
    04:00 +25°C° 1.2 mm 1 mps 728 mmHg 92%
    05:00 +25°C° 0.4 mm 1 mps 728 mmHg 91%
    06:00 +26°C° 0.4 mm 1 mps 729 mmHg 90%
    07:00 +26°C° 0.4 mm 1 mps 729 mmHg 89%
    08:00 +28°C° 0.7 mm 1 mps 729 mmHg 80%
    09:00 +29°C° 0.7 mm 0 mps 729 mmHg 70%
    10:00 +31°C° 0.7 mm 0 mps 729 mmHg 61%
    11:00 +32°C° 0.2 mm 0 mps 728 mmHg 57%
    12:00 +35°C° 0.2 mm 1 mps 728 mmHg 53%
    13:00 +35°C° 0.2 mm 1 mps 727 mmHg 48%
    14:00 +34°C° 0.3 mm 1 mps 726 mmHg 51%
    15:00 +34°C° 0.3 mm 1 mps 726 mmHg 55%
    16:00 +33°C° 0.3 mm 1 mps 725 mmHg 58%
    17:00 +31°C° 0.1 mm 1 mps 726 mmHg 63%
    18:00 +30°C° 0.1 mm 1 mps 726 mmHg 69%
    19:00 +28°C° 0.1 mm 1 mps 727 mmHg 74%
    20:00 +28°C° 0.2 mm 1 mps 727 mmHg 75%
    21:00 +28°C° 0.2 mm 1 mps 727 mmHg 76%
    22:00 +27°C° 0.2 mm 1 mps 728 mmHg 77%
    23:00 +27°C° 0 mm 1 mps 728 mmHg 79%

    Tomorrow, 19 November, Monday

    Time Temperature Precipitation Wind Pressure Humidity
    00:00 +27°C° 0 mm 1 mps 727 mmHg 80%
    01:00 +26°C° 0 mm 1 mps 727 mmHg 82%
    02:00 +26°C° 0 mm 1 mps 727 mmHg 82%
    03:00 +26°C° 0 mm 1 mps 727 mmHg 83%
    04:00 +25°C° 0 mm 1 mps 727 mmHg 84%
    05:00 +26°C° 0.1 mm 1 mps 727 mmHg 83%
    06:00 +26°C° 0.1 mm 1 mps 728 mmHg 82%
    07:00 +27°C° 0.1 mm 1 mps 728 mmHg 80%
    08:00 +29°C° 0.1 mm 1 mps 728 mmHg 73%
    09:00 +31°C° 0.1 mm 1 mps 729 mmHg 65%
    10:00 +33°C° 0.1 mm 1 mps 729 mmHg 57%
    11:00 +34°C° 0.8 mm 1 mps 728 mmHg 55%
    12:00 +34°C° 0.8 mm 1 mps 727 mmHg 53%
    13:00 +35°C° 0.8 mm 1 mps 726 mmHg 52%
    14:00 +34°C° 0.6 mm 1 mps 726 mmHg 55%
    15:00 +33°C° 0.6 mm 1 mps 725 mmHg 59%
    16:00 +33°C° 0.6 mm 1 mps 725 mmHg 62%
    17:00 +31°C° 0.1 mm 1 mps 725 mmHg 67%
    18:00 +30°C° 0.1 mm 2 mps 726 mmHg 72%
    19:00 +28°C° 0.1 mm 2 mps 727 mmHg 76%
    20:00 +27°C° 1.4 mm 2 mps 727 mmHg 81%
    21:00 +26°C° 1.4 mm 2 mps 727 mmHg 86%
    22:00 +26°C° 1.4 mm 2 mps 728 mmHg 91%
    23:00 +25°C° 0.2 mm 2 mps 728 mmHg 91%

    Day after tomorrow, 20 November, Tuesday

    Time Temperature Precipitation Wind Pressure Humidity
    00:00 +25°C° 0.2 mm 2 mps 727 mmHg 91%
    01:00 +25°C° 0.2 mm 2 mps 727 mmHg 91%
    02:00 +25°C° 0.2 mm 2 mps 727 mmHg 92%
    03:00 +25°C° 0.2 mm 1 mps 727 mmHg 92%
    04:00 +25°C° 0.2 mm 1 mps 727 mmHg 93%
    05:00 +25°C° 0.2 mm 1 mps 728 mmHg 92%
    06:00 +25°C° 0.2 mm 1 mps 728 mmHg 92%
    07:00 +26°C° 0.2 mm 1 mps 729 mmHg 91%
    08:00 +27°C° 0 mm 2 mps 729 mmHg 82%
    09:00 +29°C° 0 mm 2 mps 729 mmHg 74%
    10:00 +31°C° 0 mm 3 mps 730 mmHg 65%
    11:00 +32°C° 0 mm 2 mps 729 mmHg 60%
    12:00 +35°C° 0 mm 2 mps 728 mmHg 55%
    13:00 +36°C° 0 mm 2 mps 727 mmHg 49%
    14:00 +35°C° 0 mm 1 mps 727 mmHg 50%
    15:00 +35°C° 0 mm 1 mps 726 mmHg 50%
    16:00 +35°C° 0 mm 1 mps 726 mmHg 50%
    17:00 +33°C° 0.2 mm 1 mps 726 mmHg 57%
    18:00 +31°C° 0.2 mm 1 mps 726 mmHg 65%
    19:00 +29°C° 0.2 mm 2 mps 727 mmHg 72%
    20:00 +28°C° 0.2 mm 2 mps 727 mmHg 76%
    21:00 +27°C° 0.2 mm 2 mps 727 mmHg 79%
    22:00 +27°C° 0.2 mm 2 mps 728 mmHg 83%
    23:00 +26°C° 0 mm 2 mps 727 mmHg 84%

    21 November, Wednesday

    Time Temperature Precipitation Wind Pressure Humidity
    00:00 +26°C° 0 mm 2 mps 727 mmHg 85%
    01:00 +26°C° 0 mm 2 mps 727 mmHg 87%
    02:00 +26°C° 0.1 mm 2 mps 727 mmHg 88%
    03:00 +25°C° 0.1 mm 2 mps 727 mmHg 90%
    04:00 +25°C° 0.1 mm 2 mps 727 mmHg 91%
    05:00 +25°C° 0.4 mm 2 mps 728 mmHg 90%
    06:00 +26°C° 0.4 mm 2 mps 728 mmHg 89%
    07:00 +26°C° 0.4 mm 2 mps 729 mmHg 88%
    08:00 +27°C° 1.8 mm 2 mps 729 mmHg 86%
    09:00 +28°C° 1.8 mm 1 mps 730 mmHg 84%
    10:00 +29°C° 1.8 mm 1 mps 730 mmHg 81%
    11:00 +29°C° 0.2 mm 1 mps 729 mmHg 77%
    12:00 +30°C° 0.2 mm 2 mps 728 mmHg 72%
    13:00 +30°C° 0.2 mm 2 mps 727 mmHg 68%
    14:00 +31°C° 0 mm 2 mps 727 mmHg 65%
    15:00 +32°C° 0 mm 2 mps 727 mmHg 62%
    16:00 +32°C° 0 mm 1 mps 726 mmHg 59%
    17:00 +30°C° 0.2 mm 1 mps 727 mmHg 66%
    18:00 +29°C° 0.2 mm 1 mps 727 mmHg 74%
    19:00 +27°C° 0.2 mm 1 mps 728 mmHg 81%
    20:00 +27°C° 0 mm 1 mps 728 mmHg 83%
    21:00 +26°C° 0 mm 1 mps 728 mmHg 85%
    22:00 +26°C° 0 mm 2 mps 728 mmHg 87%
    23:00 +25°C° 0.3 mm 1 mps 728 mmHg 87%

    22 November, Thursday

    Time Temperature Precipitation Wind Pressure Humidity
    00:00 +25°C° 0.3 mm 1 mps 728 mmHg 87%
    01:00 +25°C° 0.3 mm 1 mps 728 mmHg 87%
    02:00 +25°C° 0.8 mm 1 mps 728 mmHg 88%
    03:00 +24°C° 0.8 mm 1 mps 727 mmHg 89%
    04:00 +24°C° 0.8 mm 1 mps 727 mmHg 91%
    05:00 +24°C° 0.5 mm 1 mps 728 mmHg 89%
    06:00 +25°C° 0.5 mm 1 mps 728 mmHg 88%
    07:00 +25°C° 0.5 mm 1 mps 729 mmHg 87%
    08:00 +27°C° 0 mm 1 mps 729 mmHg 78%
    09:00 +30°C° 0 mm 1 mps 729 mmHg 68%
    10:00 +32°C° 0 mm 1 mps 729 mmHg 59%
    11:00 +33°C° 0 mm 1 mps 729 mmHg 54%
    12:00 +35°C° 0 mm 1 mps 728 mmHg 49%
    13:00 +37°C° 0 mm 1 mps 727 mmHg 44%
    14:00 +35°C° 0.2 mm 1 mps 727 mmHg 49%
    15:00 +34°C° 0.2 mm 1 mps 726 mmHg 54%
    16:00 +33°C° 0.2 mm 1 mps 726 mmHg 59%
    17:00 +31°C° 0.1 mm 1 mps 726 mmHg 64%
    18:00 +30°C° 0.1 mm 2 mps 727 mmHg 68%
    19:00 +28°C° 0.1 mm 2 mps 727 mmHg 73%
    20:00 +27°C° 0.9 mm 2 mps 727 mmHg 78%
    21:00 +27°C° 0.9 mm 1 mps 728 mmHg 83%
    22:00 +26°C° 0.9 mm 1 mps 728 mmHg 88%
    23:00 +26°C° 1 mm 1 mps 728 mmHg 89%

    23 November, Friday

    Time Temperature Precipitation Wind Pressure Humidity
    00:00 +25°C° 1 mm 1 mps 727 mmHg 90%
    01:00 +25°C° 1 mm 1 mps 727 mmHg 91%
    02:00 +25°C° 0.1 mm 1 mps 727 mmHg 91%
    03:00 +25°C° 0.1 mm 1 mps 727 mmHg 92%
    04:00 +25°C° 0.1 mm 1 mps 727 mmHg 92%
    05:00 +25°C° 0.1 mm 1 mps 728 mmHg 91%
    06:00 +26°C° 0.1 mm 1 mps 729 mmHg 89%
    07:00 +26°C° 0.1 mm 1 mps 729 mmHg 88%
    08:00 +28°C° 0.2 mm 1 mps 729 mmHg 78%
    09:00 +30°C° 0.2 mm 1 mps 729 mmHg 69%
    10:00 +32°C° 0.2 mm 1 mps 729 mmHg 60%
    11:00 +33°C° 0.2 mm 1 mps 728 mmHg 57%
    12:00 +34°C° 0.2 mm 1 mps 728 mmHg 53%
    13:00 +35°C° 0.2 mm 1 mps 727 mmHg 50%
    14:00 +35°C° 0.1 mm 1 mps 726 mmHg 51%
    15:00 +34°C° 0.1 mm 1 mps 726 mmHg 52%
    16:00 +34°C° 0.1 mm 1 mps 725 mmHg 52%
    17:00 +32°C° 0 mm 1 mps 726 mmHg 58%
    18:00 +31°C° 0 mm 1 mps 726 mmHg 64%
    19:00 +29°C° 0 mm 1 mps 727 mmHg 70%
    20:00 +28°C° 0.7 mm 1 mps 727 mmHg 76%
    21:00 +27°C° 0.7 mm 1 mps 727 mmHg 82%
    22:00 +26°C° 0.7 mm 1 mps 727 mmHg 88%
    23:00 +26°C° 0.3 mm 1 mps 727 mmHg 88%
    Show more